This is the latest recevied weather packets stored in our database for station/object YC0ACE-13. If no packets are shown the sender has not sent any weather packets the latest 10 day(s).
| Time | Temp. | Humidity | Pressure | Rain* | Wind** | Luminosity | Snow |
|---|---|---|---|---|---|---|---|
| 1777194924 | 32.22° C | 67% | 1012.5 hPa | 0 mm | - | 218 W/m² | - |
| 1777194624 | 31.67° C | 68% | 1012.5 hPa | 0 mm | - | 233 W/m² | - |
| 1777194325 | 31.67° C | 69% | 1012.5 hPa | 0 mm | - | 215 W/m² | - |
| 1777194024 | 32.22° C | 66% | 1012.9 hPa | 0 mm | - | 176 W/m² | - |
| 1777193725 | 31.67° C | 67% | 1012.5 hPa | 0 mm | - | 252 W/m² | - |
| 1777193425 | 32.22° C | 67% | 1012.5 hPa | 0 mm | - | 310 W/m² | - |
| 1777193125 | 32.22° C | 67% | 1012.5 hPa | 0 mm | - | 304 W/m² | - |
| 1777192825 | 32.22° C | 66% | 1012.5 hPa | 0 mm | - | 184 W/m² | - |
| 1777192524 | 32.22° C | 67% | 1012.2 hPa | 0 mm | - | 348 W/m² | - |
| 1777192224 | 32.22° C | 66% | 1012.2 hPa | 0 mm | - | 377 W/m² | - |
| 1777191924 | 32.22° C | 66% | 1012.5 hPa | 0 mm | - | 397 W/m² | - |
| 1777191624 | 31.67° C | 67% | 1012.2 hPa | 0 mm | - | 287 W/m² | - |
| 1777191325 | 32.22° C | 66% | 1012.2 hPa | 0 mm | - | 430 W/m² | - |
| 1777191024 | 32.22° C | 66% | 1012.2 hPa | 0 mm | - | 433 W/m² | - |
| 1777190725 | 32.78° C | 66% | 1012.2 hPa | 0 mm | - | 462 W/m² | - |
| 1777190424 | 32.78° C | 66% | 1012.2 hPa | 0 mm | - | 470 W/m² | - |
| 1777190126 | 32.78° C | 66% | 1011.9 hPa | 0 mm | - | 484 W/m² | - |
| 1777189825 | 32.78° C | 65% | 1011.9 hPa | 0 mm | - | 523 W/m² | - |
| 1777189526 | 33.33° C | 64% | 1012.2 hPa | 0 mm | - | 536 W/m² | - |
| 1777189224 | 32.78° C | 65% | 1012.2 hPa | 0 mm | - | 545 W/m² | - |
| 1777188924 | 32.78° C | 66% | 1012.2 hPa | 0 mm | - | 577 W/m² | - |
| 1777188625 | 32.78° C | 65% | 1012.2 hPa | 0 mm | - | 599 W/m² | - |
| 1777188325 | 32.78° C | 65% | 1011.9 hPa | 0 mm | - | 158 W/m² | - |
| 1777188024 | 32.78° C | 65% | 1012.2 hPa | 0 mm | - | 611 W/m² | - |
| 1777187725 | 32.78° C | 64% | 1012.2 hPa | 0 mm | - | 188 W/m² | - |
* Rain latest hour (hover to see other rain measurements)
** Current wind speed in m/s (hover to see current wind gust speed)